,,PA_Meas_PMT16A,,PR_Meas_QMR101_102,,RH_Meas_QMH101,,SR_Meas_QMS101,,TA_Meas_QMH101,,GenWind,,GenWind,
time,status,PA,status,PR,status,RH,status,SR,status,TA,status,DirAvg,status,SpdAvg,
2012-01-31, 00:00:04,VALID,917.793,VALID,0,VALID,95.0183,VALID,0,VALID,19.2153,VALID,205,VALID,0.772266,
2012-01-31, 00:01:04,VALID,917.801,VALID,0,VALID,95.1631,VALID,0,VALID,19.2153,VALID,205,VALID,0.648438,
2012-01-31, 00:02:04,VALID,917.821,VALID,0,VALID,95.3689,VALID,0,VALID,19.2753,VALID,205,VALID,0.63125,
2012-01-31, 00:03:04,VALID,917.814,VALID,0,VALID,95.3156,VALID,0,VALID,19.2587,VALID,205,VALID,0.611719,
2012-01-31, 00:04:04,VALID,917.826,VALID,0,VALID,95.3766,VALID,0,VALID,19.1568,VALID,205,VALID,0.262891,
2012-01-31, 00:05:04,VALID,917.762,VALID,0,VALID,95.5748,VALID,0,VALID,19.1568,VALID,205,VALID,0.626953,
2012-01-31, 00:06:04,VALID,917.768,VALID,0,VALID,95.834,VALID,0,VALID,19.2153,VALID,205,VALID,0.851172,
2012-01-31, 00:07:04,VALID,917.761,VALID,0,VALID,96.0779,VALID,0,VALID,19.2738,VALID,205,VALID,1.16719,
2012-01-31, 00:08:04,VALID,917.768,VALID,0,VALID,96.055,VALID,0,VALID,19.2738,VALID,205,VALID,1.04922,
2012-01-31, 00:09:04,VALID,917.78,VALID,0,VALID,96.116,VALID,0,VALID,19.2738,VALID,205,VALID,0.975,
2012-01-31, 00:10:04,VALID,917.79,VALID,0,VALID,95.9941,VALID,0,VALID,19.2738,VALID,205,VALID,0.576172,
2012-01-31, 00:11:04,VALID,917.793,VALID,0,VALID,95.9636,VALID,0,VALID,19.2543,VALID,205,VALID,0.295312,
2012-01-31, 00:12:04,VALID,917.771,VALID,0,VALID,96.0322,VALID,0,VALID,19.2543,VALID,205,VALID,0.0464844,
2012-01-31, 00:13:04,VALID,917.742,VALID,0,VALID,95.9483,VALID,0,VALID,19.2543,VALID,205,VALID,0.370313,
2012-01-31, 00:14:04,VALID,917.695,VALID,0,VALID,95.7196,VALID,0,VALID,19.2153,VALID,205,VALID,0.471875,
2012-01-31, 00:15:04,VALID,917.66,VALID,0,VALID,95.5367,VALID,0,VALID,19.1568,VALID,205,VALID,0.273438,
2012-01-31, 00:16:04,VALID,917.643,VALID,0,VALID,95.529,VALID,0,VALID,19.1763,VALID,205,VALID,0,
2012-01-31, 00:17:04,VALID,917.652,VALID,0,VALID,95.7501,VALID,0,VALID,19.2139,VALID,205,VALID,0.34375,
2012-01-31, 00:18:04,VALID,917.616,VALID,0,VALID,95.6586,VALID,0,VALID,19.2348,VALID,205,VALID,0.382031,
2012-01-31, 00:19:04,VALID,917.579,VALID,0,VALID,95.7425,VALID,0,VALID,19.2543,VALID,205,VALID,0,
2012-01-31, 00:20:04,VALID,917.574,VALID,0,VALID,95.468,VALID,0,VALID,19.2153,VALID,205,VALID,0.308594,
2012-01-31, 00:21:04,VALID,917.553,VALID,0,VALID,95.2317,VALID,0,VALID,19.1958,VALID,205,VALID,0.968359,
2012-01-31, 00:22:04,VALID,917.55,VALID,0,VALID,95.1707,VALID,0,VALID,19.1373,VALID,205,VALID,0.671094,
2012-01-31, 00:23:04,VALID,917.589,VALID,0,VALID,95.2317,VALID,0,VALID,19.1568,VALID,205,VALID,0.141016,
2012-01-31, 00:24:04,VALID,917.581,VALID,0,VALID,95.3232,VALID,0,VALID,19.1763,VALID,205,VALID,0,
2012-01-31, 00:25:04,VALID,917.602,VALID,0,VALID,95.3079,VALID,0,VALID,19.1763,VALID,205,VALID,0,
2012-01-31, 00:26:04,VALID,917.58,VALID,0,VALID,95.3003,VALID,0,VALID,19.1763,VALID,204,VALID,0.0195313,
2012-01-31, 00:27:04,VALID,917.574,VALID,0,VALID,95.2622,VALID,0.107441,VALID,19.1763,VALID,204,VALID,0,
2012-01-31, 00:28:04,VALID,917.57,VALID,0,VALID,95.247,VALID,0,VALID,19.1373,VALID,205,VALID,0,
2012-01-31, 00:29:04,VALID,917.524,VALID,0,VALID,95.2546,VALID,0,VALID,19.1178,VALID,205,VALID,0,
2012-01-31, 00:30:04,VALID,917.485,VALID,0,VALID,95.6281,VALID,0,VALID,19.1763,VALID,204,VALID,0,
2012-01-31, 00:31:04,VALID,917.476,VALID,0,VALID,95.7654,VALID,0,VALID,19.2348,VALID,205,VALID,0,
2012-01-31, 00:32:04,VALID,917.457,VALID,0,VALID,95.834,VALID,0,VALID,19.2543,VALID,205,VALID,0,
2012-01-31, 00:33:04,VALID,917.467,VALID,0,VALID,95.8568,VALID,0,VALID,19.2933,VALID,204,VALID,0,
2012-01-31, 00:34:04,VALID,917.45,VALID,0,VALID,95.6205,VALID,0,VALID,19.2933,VALID,205,VALID,0,
2012-01-31, 00:35:04,VALID,917.447,VALID,0,VALID,95.1402,VALID,0,VALID,19.1958,VALID,204,VALID,0.728906,
2012-01-31, 00:36:04,VALID,917.403,VALID,0,VALID,95.5214,VALID,0,VALID,19.2933,VALID,205,VALID,0.423438,
2012-01-31, 00:37:04,VALID,917.431,VALID,0,VALID,95.5671,VALID,0,VALID,19.3323,VALID,205,VALID,0.578906,
2012-01-31, 00:38:04,VALID,917.406,VALID,0,VALID,95.5976,VALID,0,VALID,19.3713,VALID,205,VALID,0.141797,
2012-01-31, 00:39:04,VALID,917.38,VALID,0,VALID,95.2088,VALID,0,VALID,19.3323,VALID,205,VALID,0.244141,
2012-01-31, 00:40:04,VALID,917.375,VALID,0,VALID,95.529,VALID,0,VALID,19.3713,VALID,205,VALID,0.254687,
2012-01-31, 00:41:04,VALID,917.349,VALID,0,VALID,94.9496,VALID,0,VALID,19.2753,VALID,205,VALID,0.446875,
2012-01-31, 00:42:04,VALID,917.357,VALID,0,VALID,95.3308,VALID,0,VALID,19.2933,VALID,205,VALID,0.439844,
2012-01-31, 00:43:04,VALID,917.37,VALID,0,VALID,95.5824,VALID,0,VALID,19.3323,VALID,205,VALID,0.367578,
2012-01-31, 00:44:04,VALID,917.377,VALID,0,VALID,95.7349,VALID,0,VALID,19.3728,VALID,205,VALID,0.161328,
2012-01-31, 00:45:04,VALID,917.373,VALID,0,VALID,95.834,VALID,0,VALID,19.3908,VALID,205,VALID,0.028125,
2012-01-31, 00:46:04,VALID,917.343,VALID,0,VALID,95.9178,VALID,0,VALID,19.4298,VALID,205,VALID,0.224609,
2012-01-31, 00:47:04,VALID,917.319,VALID,0,VALID,95.9026,VALID,0,VALID,19.4298,VALID,205,VALID,0.543359,
2012-01-31, 00:48:04,VALID,917.299,VALID,0,VALID,95.9407,VALID,0,VALID,19.4298,VALID,205,VALID,0.405078,
2012-01-31, 00:49:04,VALID,917.282,VALID,0,VALID,95.9941,VALID,0,VALID,19.4508,VALID,205,VALID,0.0378906,
2012-01-31, 00:50:04,VALID,917.303,VALID,0,VALID,96.0169,VALID,0,VALID,19.4298,VALID,204,VALID,0,
2012-01-31, 00:51:04,VALID,917.291,VALID,0,VALID,96.0474,VALID,0,VALID,19.4703,VALID,205,VALID,0,
2012-01-31, 00:52:04,VALID,917.312,VALID,0,VALID,95.8797,VALID,0,VALID,19.4103,VALID,204,VALID,0,
2012-01-31, 00:53:04,VALID,917.3,VALID,0,VALID,95.6739,VALID,0,VALID,19.3128,VALID,205,VALID,0,
2012-01-31, 00:54:04,VALID,917.311,VALID,0,VALID,95.5976,VALID,0,VALID,19.3143,VALID,205,VALID,0,
2012-01-31, 00:55:04,VALID,917.292,VALID,0,VALID,95.3461,VALID,0,VALID,19.2348,VALID,205,VALID,0,
2012-01-31, 00:56:04,VALID,917.293,VALID,0,VALID,95.4833,VALID,0,VALID,19.2153,VALID,205,VALID,0,
2012-01-31, 00:57:04,VALID,917.287,VALID,0,VALID,95.6281,VALID,0,VALID,19.2543,VALID,205,VALID,0,
2012-01-31, 00:58:04,VALID,917.329,VALID,0,VALID,95.7806,VALID,0,VALID,19.2918,VALID,205,VALID,0,
2012-01-31, 00:59:04,VALID,917.302,VALID,0,VALID,95.9407,VALID,0,VALID,19.3113,VALID,205,VALID,0,
2012-01-31, 01:00:04,VALID,917.301,VALID,0,VALID,96.0703,VALID,0,VALID,19.3713,VALID,205,VALID,0,
2012-01-31, 01:01:04,VALID,917.343,VALID,0,VALID,95.9712,VALID,0,VALID,19.3518,VALID,205,VALID,0,
2012-01-31, 01:02:04,VALID,917.305,VALID,0,VALID,95.9026,VALID,0.107441,VALID,19.2918,VALID,205,VALID,0.454688,
2012-01-31, 01:03:04,VALID,917.365,VALID,0,VALID,95.9559,VALID,0.107441,VALID,19.2918,VALID,205,VALID,0.227344,
2012-01-31, 01:04:04,VALID,917.393,VALID,0,VALID,95.9407,VALID,0.107441,VALID,19.2918,VALID,205,VALID,0,
2012-01-31, 01:05:04,VALID,917.393,VALID,0,VALID,95.895,VALID,0,VALID,19.3128,VALID,205,VALID,0.300391,
2012-01-31, 01:06:04,VALID,917.421,VALID,0,VALID,95.8187,VALID,0.107441,VALID,19.2543,VALID,205,VALID,0.370703,
2012-01-31, 01:07:04,VALID,917.409,VALID,0,VALID,95.834,VALID,0.107441,VALID,19.2723,VALID,205,VALID,0.339844,
2012-01-31, 01:08:04,VALID,917.377,VALID,0,VALID,95.9026,VALID,0.107441,VALID,19.2528,VALID,205,VALID,0.214844,
2012-01-31, 01:09:04,VALID,917.369,VALID,0,VALID,95.7958,VALID,0,VALID,19.2528,VALID,205,VALID,0.491797,
2012-01-31, 01:10:04,VALID,917.381,VALID,0,VALID,95.8721,VALID,0.107441,VALID,19.2528,VALID,205,VALID,0.660547,
2012-01-31, 01:11:04,VALID,917.381,VALID,0,VALID,95.8111,VALID,0,VALID,19.2723,VALID,205,VALID,0.538672,
2012-01-31, 01:12:04,VALID,917.394,VALID,0,VALID,95.6434,VALID,0,VALID,19.2139,VALID,205,VALID,1.11016,
2012-01-31, 01:13:04,VALID,917.42,VALID,0,VALID,95.4223,VALID,0,VALID,19.1568,VALID,205,VALID,1.04336,
2012-01-31, 01:14:04,VALID,917.447,VALID,0,VALID,95.3766,VALID,0,VALID,19.1388,VALID,205,VALID,0.704297,
2012-01-31, 01:15:04,VALID,917.43,VALID,0,VALID,95.4071,VALID,0,VALID,19.1193,VALID,196,VALID,1.48242,
2012-01-31, 01:16:04,VALID,917.409,VALID,0,VALID,95.5671,VALID,0,VALID,19.0788,VALID,142,VALID,1.13555,
2012-01-31, 01:17:04,VALID,917.415,VALID,0,VALID,95.6662,VALID,0,VALID,19.0384,VALID,147,VALID,0.913281,
2012-01-31, 01:18:04,VALID,917.438,VALID,0,VALID,95.7044,VALID,0,VALID,19.0008,VALID,147,VALID,0.701563,
2012-01-31, 01:19:04,VALID,917.435,VALID,0,VALID,95.834,VALID,0,VALID,18.9814,VALID,147,VALID,0.705469,
2012-01-31, 01:20:04,VALID,917.416,VALID,0,VALID,95.8645,VALID,0,VALID,18.9828,VALID,147,VALID,0.868359,
2012-01-31, 01:21:04,VALID,917.453,VALID,0,VALID,95.8797,VALID,0,VALID,18.9034,VALID,147,VALID,0.674609,
2012-01-31, 01:22:04,VALID,917.416,VALID,0,VALID,95.9483,VALID,0,VALID,18.8853,VALID,147,VALID,0.725781,
2012-01-31, 01:23:04,VALID,917.431,VALID,0,VALID,96.0627,VALID,0,VALID,18.8449,VALID,147,VALID,0.691406,
2012-01-31, 01:24:04,VALID,917.421,VALID,0,VALID,96.1236,VALID,0,VALID,18.8449,VALID,147,VALID,0.632422,
2012-01-31, 01:25:04,VALID,917.401,VALID,0,VALID,96.1999,VALID,0.107441,VALID,18.8658,VALID,147,VALID,0.99375,
2012-01-31, 01:26:04,VALID,917.371,VALID,0,VALID,96.2456,VALID,0,VALID,18.8268,VALID,147,VALID,0.671484,
2012-01-31, 01:27:04,VALID,917.339,VALID,0,VALID,96.2304,VALID,0,VALID,18.7669,VALID,147,VALID,0.605859,
2012-01-31, 01:28:04,VALID,917.329,VALID,0,VALID,96.3219,VALID,0,VALID,18.8073,VALID,147,VALID,0.746875,
2012-01-31, 01:29:04,VALID,917.339,VALID,0,VALID,96.4057,VALID,0,VALID,18.8268,VALID,147,VALID,0.658594,
2012-01-31, 01:30:04,VALID,917.332,VALID,0,VALID,96.1923,VALID,0,VALID,18.7084,VALID,147,VALID,0.408984,
2012-01-31, 01:31:04,VALID,917.33,VALID,0,VALID,96.4438,VALID,0,VALID,18.7279,VALID,147,VALID,0.672656,
2012-01-31, 01:32:04,VALID,917.308,VALID,0,VALID,96.5353,VALID,0,VALID,18.7878,VALID,147,VALID,0.9625,
2012-01-31, 01:33:04,VALID,917.314,VALID,0,VALID,96.6344,VALID,0,VALID,18.8254,VALID,147,VALID,1.07344,
2012-01-31, 01:34:04,VALID,917.339,VALID,0,VALID,96.6649,VALID,0,VALID,18.8449,VALID,147,VALID,0.929688,
2012-01-31, 01:35:04,VALID,917.328,VALID,0,VALID,96.5887,VALID,0,VALID,18.8268,VALID,147,VALID,0.434375,
2012-01-31, 01:36:04,VALID,917.348,VALID,0,VALID,96.642,VALID,0,VALID,18.8254,VALID,147,VALID,0.742188,
2012-01-31, 01:37:04,VALID,917.332,VALID,0,VALID,96.4667,VALID,0,VALID,18.7864,VALID,147,VALID,0.0539063,
2012-01-31, 01:38:04,VALID,917.318,VALID,0,VALID,96.5277,VALID,0,VALID,18.7474,VALID,147,VALID,0.534766,
2012-01-31, 01:39:04,VALID,917.28,VALID,0,VALID,96.6039,VALID,0,VALID,18.8073,VALID,147,VALID,0.527344,
2012-01-31, 01:40:04,VALID,917.26,VALID,0,VALID,96.642,VALID,0,VALID,18.8059,VALID,147,VALID,0.924609,
2012-01-31, 01:41:04,VALID,917.28,VALID,0,VALID,96.7107,VALID,0,VALID,18.8254,VALID,147,VALID,0.916016,
2012-01-31, 01:42:04,VALID,917.281,VALID,0,VALID,96.703,VALID,0,VALID,18.8449,VALID,147,VALID,0.762891,
2012-01-31, 01:43:04,VALID,917.266,VALID,0,VALID,96.6802,VALID,0,VALID,18.8644,VALID,147,VALID,0.84375,
2012-01-31, 01:44:04,VALID,917.23,VALID,0,VALID,96.6954,VALID,0,VALID,18.8644,VALID,147,VALID,1.0957,
2012-01-31, 01:45:04,VALID,917.139,VALID,0,VALID,96.642,VALID,0,VALID,18.8658,VALID,147,VALID,0.931641,
2012-01-31, 01:46:04,VALID,917.115,VALID,0,VALID,96.6192,VALID,0,VALID,18.8644,VALID,147,VALID,0.891797,
2012-01-31, 01:47:04,VALID,917.09,VALID,0,VALID,96.6954,VALID,0,VALID,18.9048,VALID,159,VALID,1.05586,
2012-01-31, 01:48:04,VALID,917.072,VALID,0,VALID,96.7411,VALID,0,VALID,18.9034,VALID,159,VALID,1.15664,
2012-01-31, 01:49:04,VALID,917.086,VALID,0,VALID,96.7335,VALID,0,VALID,18.9034,VALID,159,VALID,1.16484,
2012-01-31, 01:50:04,VALID,917.072,VALID,0,VALID,96.7259,VALID,0,VALID,18.8644,VALID,159,VALID,1.02383,
2012-01-31, 01:51:04,VALID,917.091,VALID,0,VALID,96.703,VALID,0,VALID,18.8254,VALID,159,VALID,0.940234,
2012-01-31, 01:52:04,VALID,917.054,VALID,0,VALID,96.6954,VALID,0,VALID,18.8268,VALID,159,VALID,0.738281,
2012-01-31, 01:53:04,VALID,917.043,VALID,0,VALID,96.7183,VALID,0,VALID,18.7669,VALID,159,VALID,1.06641,
2012-01-31, 01:54:04,VALID,917.047,VALID,0,VALID,96.764,VALID,0,VALID,18.7474,VALID,159,VALID,1.05078,
2012-01-31, 01:55:04,VALID,917.072,VALID,0,VALID,96.7945,VALID,0,VALID,18.7683,VALID,159,VALID,0.758594,
2012-01-31, 01:56:04,VALID,917.108,VALID,0,VALID,96.7793,VALID,0,VALID,18.7279,VALID,159,VALID,0.305078,
2012-01-31, 01:57:04,VALID,917.097,VALID,0,VALID,96.7488,VALID,0,VALID,18.6694,VALID,159,VALID,0,
2012-01-31, 01:58:04,VALID,917.069,VALID,0,VALID,96.8174,VALID,0.107441,VALID,18.6485,VALID,159,VALID,0.413281,
2012-01-31, 01:59:04,VALID,917.056,VALID,0,VALID,96.703,VALID,0,VALID,18.6513,VALID,159,VALID,0.408594,
2012-01-31, 02:00:04,VALID,917.037,VALID,0,VALID,96.7183,VALID,0.107441,VALID,18.5705,VALID,159,VALID,0.544531,
2012-01-31, 02:01:04,VALID,917.038,VALID,0,VALID,96.8174,VALID,0.107441,VALID,18.5914,VALID,159,VALID,0.580078,
2012-01-31, 02:02:04,VALID,917.028,VALID,0,VALID,96.8098,VALID,0,VALID,18.6109,VALID,159,VALID,0.453906,
2012-01-31, 02:03:04,VALID,916.999,VALID,0,VALID,96.8555,VALID,0,VALID,18.6109,VALID,159,VALID,1.02539,
2012-01-31, 02:04:04,VALID,916.989,VALID,0,VALID,97.0994,VALID,0,VALID,18.7655,VALID,120,VALID,1.01445,
2012-01-31, 02:05:04,VALID,916.95,VALID,0,VALID,97.1376,VALID,0,VALID,18.8629,VALID,120,VALID,0.88125,
2012-01-31, 02:06:04,VALID,916.932,VALID,0,VALID,97.1071,VALID,0.107441,VALID,18.8824,VALID,120,VALID,0.574219,
2012-01-31, 02:07:04,VALID,916.876,VALID,0,VALID,97.069,VALID,0.107441,VALID,18.9214,VALID,120,VALID,0.348828,
2012-01-31, 02:08:04,VALID,916.838,VALID,0,VALID,97.0537,VALID,0.107441,VALID,18.9604,VALID,120,VALID,0.296094,
2012-01-31, 02:09:04,VALID,916.785,VALID,0,VALID,97.0232,VALID,0,VALID,18.9814,VALID,120,VALID,0.212109,
2012-01-31, 02:10:04,VALID,916.791,VALID,0,VALID,97.0003,VALID,0.107441,VALID,18.9814,VALID,120,VALID,0.09375,
2012-01-31, 02:11:04,VALID,916.756,VALID,0,VALID,96.9394,VALID,0,VALID,18.9814,VALID,120,VALID,0.4875,
2012-01-31, 02:12:04,VALID,916.79,VALID,0,VALID,96.9241,VALID,0.107441,VALID,18.9424,VALID,120,VALID,0.532422,
2012-01-31, 02:13:04,VALID,916.774,VALID,0,VALID,96.9165,VALID,0,VALID,18.9633,VALID,120,VALID,0.505078,
2012-01-31, 02:14:04,VALID,916.78,VALID,0,VALID,96.9317,VALID,0,VALID,18.9633,VALID,120,VALID,0.497266,
2012-01-31, 02:15:04,VALID,916.81,VALID,0,VALID,96.8631,VALID,0,VALID,18.9633,VALID,120,VALID,0.257422,
2012-01-31, 02:16:04,VALID,916.818,VALID,0,VALID,96.8479,VALID,0,VALID,18.9229,VALID,120,VALID,0.278906,
2012-01-31, 02:17:04,VALID,916.831,VALID,0,VALID,96.8555,VALID,0,VALID,18.9424,VALID,120,VALID,0.339063,
2012-01-31, 02:18:04,VALID,916.766,VALID,0,VALID,96.8479,VALID,0,VALID,18.9828,VALID,120,VALID,0.308203,
2012-01-31, 02:19:04,VALID,916.767,VALID,0,VALID,96.6954,VALID,0,VALID,18.9229,VALID,120,VALID,0.402734,
2012-01-31, 02:20:04,VALID,916.731,VALID,0,VALID,96.6192,VALID,0,VALID,18.8644,VALID,120,VALID,0.471094,
2012-01-31, 02:21:04,VALID,916.737,VALID,0,VALID,96.5201,VALID,0,VALID,18.8268,VALID,120,VALID,0.288672,
2012-01-31, 02:22:04,VALID,916.742,VALID,0,VALID,96.6192,VALID,0,VALID,18.8059,VALID,120,VALID,0.580469,
2012-01-31, 02:23:04,VALID,916.776,VALID,0,VALID,96.6954,VALID,0,VALID,18.8644,VALID,120,VALID,0.457422,
2012-01-31, 02:24:04,VALID,916.758,VALID,0,VALID,96.5963,VALID,0,VALID,18.7864,VALID,120,VALID,0.495703,
2012-01-31, 02:25:04,VALID,916.723,VALID,0,VALID,96.5124,VALID,0,VALID,18.8463,VALID,120,VALID,0.583203,
2012-01-31, 02:26:04,VALID,916.677,VALID,0,VALID,96.5048,VALID,0,VALID,18.8073,VALID,119,VALID,0.625391,
2012-01-31, 02:27:04,VALID,916.664,VALID,0,VALID,96.3371,VALID,0,VALID,18.7878,VALID,120,VALID,0.666406,
2012-01-31, 02:28:04,VALID,916.611,VALID,0,VALID,96.4057,VALID,0,VALID,18.7474,VALID,119,VALID,0.811328,
2012-01-31, 02:29:04,VALID,916.615,VALID,0,VALID,96.4972,VALID,0.107441,VALID,18.785,VALID,119,VALID,0.653516,
2012-01-31, 02:30:04,VALID,916.609,VALID,0,VALID,96.5811,VALID,0.107441,VALID,18.8254,VALID,120,VALID,0.706641,
2012-01-31, 02:31:04,VALID,916.595,VALID,0,VALID,96.5582,VALID,0,VALID,18.8254,VALID,120,VALID,0.582812,
2012-01-31, 02:32:04,VALID,916.583,VALID,0,VALID,96.4286,VALID,0,VALID,18.8059,VALID,120,VALID,0.493359,
2012-01-31, 02:33:04,VALID,916.55,VALID,0,VALID,96.5582,VALID,0,VALID,18.8254,VALID,120,VALID,0.535937,
2012-01-31, 02:34:04,VALID,916.577,VALID,0,VALID,96.6039,VALID,0,VALID,18.8839,VALID,119,VALID,0.426562,
2012-01-31, 02:35:04,VALID,916.61,VALID,0,VALID,96.6192,VALID,0,VALID,18.9019,VALID,120,VALID,0.127344,
2012-01-31, 02:36:04,VALID,916.574,VALID,0,VALID,96.5734,VALID,0.107441,VALID,18.9034,VALID,120,VALID,0,
2012-01-31, 02:37:04,VALID,916.591,VALID,0,VALID,96.5887,VALID,0,VALID,18.9214,VALID,120,VALID,0,
2012-01-31, 02:38:04,VALID,916.569,VALID,0,VALID,96.3905,VALID,0,VALID,18.9243,VALID,120,VALID,0,
2012-01-31, 02:39:04,VALID,916.561,VALID,0,VALID,96.3371,VALID,0,VALID,18.8839,VALID,120,VALID,0,
2012-01-31, 02:40:04,VALID,916.529,VALID,0,VALID,96.3142,VALID,0.107441,VALID,18.9019,VALID,120,VALID,0,
2012-01-31, 02:41:04,VALID,916.523,VALID,0,VALID,96.299,VALID,0,VALID,18.9243,VALID,120,VALID,0,
2012-01-31, 02:42:04,VALID,916.54,VALID,0,VALID,96.2456,VALID,0,VALID,18.9214,VALID,120,VALID,0,
2012-01-31, 02:43:04,VALID,916.531,VALID,0,VALID,96.1999,VALID,0,VALID,18.9633,VALID,120,VALID,0,
2012-01-31, 02:44:04,VALID,916.486,VALID,0,VALID,96.1008,VALID,0,VALID,18.9243,VALID,120,VALID,0.236328,
2012-01-31, 02:45:04,VALID,916.459,VALID,0,VALID,96.0017,VALID,0,VALID,18.9647,VALID,120,VALID,0,
2012-01-31, 02:46:04,VALID,916.41,VALID,0,VALID,95.6815,VALID,0,VALID,18.8658,VALID,120,VALID,0,
2012-01-31, 02:47:04,VALID,916.389,VALID,0,VALID,95.1326,VALID,0,VALID,18.7474,VALID,120,VALID,0,
2012-01-31, 02:48:04,VALID,916.359,VALID,0,VALID,94.9878,VALID,0,VALID,18.7293,VALID,120,VALID,0,
2012-01-31, 02:49:04,VALID,916.369,VALID,0,VALID,95.1936,VALID,0,VALID,18.7293,VALID,120,VALID,0,
2012-01-31, 02:50:04,VALID,916.373,VALID,0,VALID,95.3842,VALID,0,VALID,18.7864,VALID,120,VALID,0.358984,
2012-01-31, 02:51:04,VALID,916.334,VALID,0,VALID,95.6662,VALID,0,VALID,18.8853,VALID,120,VALID,0.334766,
2012-01-31, 02:52:04,VALID,916.329,VALID,0,VALID,95.5443,VALID,0,VALID,18.9048,VALID,120,VALID,0,
2012-01-31, 02:53:04,VALID,916.285,VALID,0,VALID,95.0869,VALID,0,VALID,18.746,VALID,120,VALID,0,
2012-01-31, 02:54:04,VALID,916.273,VALID,0,VALID,95.003,VALID,0,VALID,18.7878,VALID,120,VALID,0,
2012-01-31, 02:55:04,VALID,916.272,VALID,0,VALID,94.8429,VALID,0,VALID,18.6694,VALID,120,VALID,0.214062,
2012-01-31, 02:56:04,VALID,916.274,VALID,0,VALID,95.1555,VALID,0,VALID,18.6889,VALID,120,VALID,0.284375,
2012-01-31, 02:57:04,VALID,916.265,VALID,0,VALID,95.3384,VALID,0,VALID,18.6694,VALID,120,VALID,0.326953,
2012-01-31, 02:58:04,VALID,916.264,VALID,0,VALID,95.6891,VALID,0,VALID,18.7488,VALID,120,VALID,0.345703,
2012-01-31, 02:59:04,VALID,916.225,VALID,0,VALID,95.8873,VALID,0,VALID,18.7655,VALID,120,VALID,0.265625,
2012-01-31, 03:00:04,VALID,916.225,VALID,0,VALID,95.8416,VALID,0,VALID,18.7251,VALID,120,VALID,0.603125,
2012-01-31, 03:01:04,VALID,916.213,VALID,0,VALID,95.895,VALID,0,VALID,18.7864,VALID,120,VALID,0.639063,
2012-01-31, 03:02:04,VALID,916.218,VALID,0,VALID,95.9788,VALID,0,VALID,18.8644,VALID,120,VALID,0.558203,
2012-01-31, 03:03:04,VALID,916.204,VALID,0,VALID,95.8721,VALID,0,VALID,18.8867,VALID,120,VALID,0.773438,
2012-01-31, 03:04:04,VALID,916.193,VALID,0,VALID,95.8797,VALID,0,VALID,18.8434,VALID,120,VALID,0.941406,
2012-01-31, 03:05:04,VALID,916.214,VALID,0,VALID,95.7806,VALID,0,VALID,18.8644,VALID,120,VALID,0.873828,
2012-01-31, 03:06:04,VALID,916.211,VALID,0,VALID,95.7349,VALID,0,VALID,18.8853,VALID,120,VALID,0.515625,
2012-01-31, 03:07:04,VALID,916.198,VALID,0,VALID,95.5748,VALID,0,VALID,18.8853,VALID,120,VALID,0.450391,
2012-01-31, 03:08:04,VALID,916.169,VALID,0,VALID,95.529,VALID,0,VALID,18.8658,VALID,120,VALID,0.355469,
2012-01-31, 03:09:04,VALID,916.153,VALID,0,VALID,95.5062,VALID,0,VALID,18.8254,VALID,120,VALID,0.600391,
2012-01-31, 03:10:04,VALID,916.165,VALID,0,VALID,95.5138,VALID,0,VALID,18.8254,VALID,119,VALID,0.522656,
2012-01-31, 03:11:04,VALID,916.174,VALID,0,VALID,95.5062,VALID,0,VALID,18.8268,VALID,120,VALID,0.364844,
2012-01-31, 03:12:04,VALID,916.154,VALID,0,VALID,95.5976,VALID,0,VALID,18.8073,VALID,120,VALID,0.20625,
2012-01-31, 03:13:04,VALID,916.186,VALID,0,VALID,95.59,VALID,0,VALID,18.8073,VALID,120,VALID,0.105859,
2012-01-31, 03:14:04,VALID,916.158,VALID,0,VALID,95.6129,VALID,0,VALID,18.7864,VALID,120,VALID,0,
2012-01-31, 03:15:04,VALID,916.148,VALID,0,VALID,95.6205,VALID,0,VALID,18.7878,VALID,120,VALID,0.250391,
2012-01-31, 03:16:04,VALID,916.19,VALID,0,VALID,95.5824,VALID,0,VALID,18.7878,VALID,120,VALID,0,
2012-01-31, 03:17:04,VALID,916.195,VALID,0,VALID,95.6053,VALID,0,VALID,18.7669,VALID,119,VALID,0,
2012-01-31, 03:18:04,VALID,916.175,VALID,0,VALID,95.5214,VALID,0,VALID,18.7878,VALID,120,VALID,0,
2012-01-31, 03:19:04,VALID,916.196,VALID,0,VALID,95.4757,VALID,0,VALID,18.7488,VALID,120,VALID,0,
2012-01-31, 03:20:04,VALID,916.164,VALID,0,VALID,95.4299,VALID,0,VALID,18.7488,VALID,120,VALID,0,
2012-01-31, 03:21:04,VALID,916.095,VALID,0,VALID,95.4071,VALID,0,VALID,18.7683,VALID,120,VALID,0,
2012-01-31, 03:22:04,VALID,916.145,VALID,0,VALID,95.3613,VALID,0,VALID,18.7279,VALID,120,VALID,0,
2012-01-31, 03:23:04,VALID,916.18,VALID,0,VALID,95.3156,VALID,0,VALID,18.7293,VALID,120,VALID,0,
2012-01-31, 03:24:04,VALID,916.175,VALID,0,VALID,95.3461,VALID,0,VALID,18.7279,VALID,120,VALID,0,
2012-01-31, 03:25:04,VALID,916.148,VALID,0,VALID,95.5748,VALID,0,VALID,18.8073,VALID,120,VALID,0,
2012-01-31, 03:26:04,VALID,916.11,VALID,0,VALID,95.4375,VALID,0,VALID,18.7878,VALID,120,VALID,0,
2012-01-31, 03:27:04,VALID,916.109,VALID,0,VALID,95.3613,VALID,0,VALID,18.7878,VALID,120,VALID,0.453125,
2012-01-31, 03:28:04,VALID,916.133,VALID,0,VALID,95.3003,VALID,0,VALID,18.7669,VALID,120,VALID,0.276172,
2012-01-31, 03:29:04,VALID,916.158,VALID,0,VALID,95.1783,VALID,0,VALID,18.7474,VALID,120,VALID,0.0121094,
2012-01-31, 03:30:04,VALID,916.156,VALID,0,VALID,95.0335,VALID,0,VALID,18.7474,VALID,120,VALID,0.279687,
2012-01-31, 03:31:04,VALID,916.188,VALID,0,VALID,94.9268,VALID,0,VALID,18.7098,VALID,120,VALID,0.201562,
2012-01-31, 03:32:04,VALID,916.166,VALID,0,VALID,95.064,VALID,0,VALID,18.7279,VALID,120,VALID,0.328516,
2012-01-31, 03:33:04,VALID,916.161,VALID,0,VALID,94.9954,VALID,0,VALID,18.7084,VALID,120,VALID,0.502344,
2012-01-31, 03:34:04,VALID,916.121,VALID,0,VALID,95.2012,VALID,0,VALID,18.7669,VALID,120,VALID,0.648438,
2012-01-31, 03:35:04,VALID,916.108,VALID,0,VALID,95.2622,VALID,0,VALID,18.7864,VALID,120,VALID,0.680859,
2012-01-31, 03:36:04,VALID,916.083,VALID,0,VALID,95.1174,VALID,0,VALID,18.7878,VALID,120,VALID,0.508984,
2012-01-31, 03:37:04,VALID,916.104,VALID,0,VALID,95.1021,VALID,0,VALID,18.7669,VALID,120,VALID,0.703125,
2012-01-31, 03:38:04,VALID,916.151,VALID,0,VALID,94.9954,VALID,0,VALID,18.8059,VALID,120,VALID,0.624219,
2012-01-31, 03:39:04,VALID,916.099,VALID,0,VALID,95.0259,VALID,0,VALID,18.7669,VALID,120,VALID,0.551562,
2012-01-31, 03:40:04,VALID,916.104,VALID,0,VALID,95.0792,VALID,0,VALID,18.8658,VALID,120,VALID,0.437891,
2012-01-31, 03:41:04,VALID,916.065,VALID,0,VALID,95.1631,VALID,0,VALID,18.8658,VALID,120,VALID,0.534766,
2012-01-31, 03:42:04,VALID,916.029,VALID,0,VALID,95.186,VALID,0,VALID,18.8853,VALID,120,VALID,0.791406,
2012-01-31, 03:43:04,VALID,916.046,VALID,0,VALID,95.2241,VALID,0,VALID,18.8839,VALID,120,VALID,0.799609,
2012-01-31, 03:44:04,VALID,916.026,VALID,0,VALID,95.3079,VALID,0,VALID,18.9243,VALID,129,VALID,0.678516,
2012-01-31, 03:45:04,VALID,916.021,VALID,0,VALID,95.3384,VALID,0.107441,VALID,18.9633,VALID,129,VALID,0.694922,
2012-01-31, 03:46:04,VALID,915.998,VALID,0,VALID,95.2698,VALID,0,VALID,18.9633,VALID,129,VALID,0.544141,